This is the latest recevied weather packets stored in our database for station/object E24QND-2. If no packets are shown the sender has not sent any weather packets the latest 10 day(s).
| Time | Temp. | Humidity | Pressure | Rain* | Wind** | Luminosity | Snow |
|---|---|---|---|---|---|---|---|
| 1777486519 | 28.89° C | 35% | - | - | - | 0 W/m² | - |
| 1777485295 | 28.89° C | 35% | - | - | - | 0 W/m² | - |
| 1777484070 | 29.44° C | 39% | - | - | - | 0 W/m² | - |
| 1777482845 | 29.44° C | 49% | - | - | - | 0 W/m² | - |
| 1777481621 | 30° C | 47% | - | - | - | 0 W/m² | - |
| 1777480397 | 30.56° C | 52% | - | - | - | 0 W/m² | - |
| 1777479172 | 30.56° C | 59% | - | - | - | 0 W/m² | - |
| 1777477948 | 30.56° C | 59% | - | - | - | 0 W/m² | - |
| 1777476723 | 30.56° C | 76% | - | - | - | 0 W/m² | - |
| 1777475498 | 30.56° C | 77% | - | - | - | 0 W/m² | - |
| 1777474274 | 30.56° C | 89% | - | - | - | 0 W/m² | - |
| 1777473049 | 30.56° C | 87% | - | - | - | 0 W/m² | - |
| 1777471825 | 30.56° C | 59% | - | - | - | 0 W/m² | - |
| 1777470600 | 31.11° C | 53% | - | - | - | 0 W/m² | - |
| 1777469376 | 31.67° C | 53% | - | - | - | 0 W/m² | - |
| 1777468151 | 31.67° C | 58% | - | - | - | 0 W/m² | - |
| 1777466927 | 31.67° C | 46% | - | - | - | 0 W/m² | - |
| 1777465702 | 31.67° C | 55% | - | - | - | 0 W/m² | - |
| 1777464477 | 31.67° C | 44% | - | - | - | 0 W/m² | - |
| 1777463253 | 32.22° C | 43% | - | - | - | 0 W/m² | - |
| 1777462028 | 32.78° C | 21% | - | - | - | 0 W/m² | - |
| 1777460804 | 35.56° C | 1% | - | - | - | 0 W/m² | - |
| 1777459579 | 35° C | 1% | - | - | - | 0 W/m² | - |
| 1777458355 | 34.44° C | 4% | - | - | - | 0 W/m² | - |
| 1777457130 | 34.44° C | 1% | - | - | - | 0 W/m² | - |
* Rain since midnight (hover to see other rain measurements)
** Current wind speed in m/s (hover to see current wind gust speed)